Location: Bratislava
(48.1500°N, 17.1170°E)
Time: 08:06:54
(UTC+02:00)

ISS - Pass Details

Date: 29 March 2019
Orbit: 408 x 410 km, 51.6° (Epoch: 21 April)

Event Time Altitude Azimuth Distance (km) Brightness Sun altitude
Rises 20:05:10 0° 283° (WNW) 2,338 1.5 -18.0°
Reaches altitude 10° 20:07:19 10° 290° (WNW) 1,476 0.3 -18.4°
Maximum altitude 20:10:30 44° 5° (N) 577 -3.0 -18.8°
Enters shadow 20:11:10 38° 40° (NE) 643 -3.0 -18.9°
